GW3329 Weather Reports


Display with metric or nautical units.
time (UTC)temp
F
wind
direction
speed
MPH
gust
MPH
rain 1hr
in
rain 24hr
in
rain mn
in
humidity
%
barometer
mb
20260510112555 49 163 0.0 0.0 0.00 0.00 0.00 98 1016.3
20260510112052 49 163 0.0 0.0 0.00 0.00 0.00 98 1016.3
20260510111548 49 163 0.0 0.0 0.00 0.00 0.00 98 1016.5
20260510111045 50 168 0.0 0.0 0.00 0.00 0.00 98 1016.2
20260510110541 50 166 0.0 0.0 0.00 0.00 0.00 98 1016.4
20260510110037 50 164 0.0 0.0 0.00 0.00 0.00 98 1016.2
20260510105533 50 164 0.0 0.0 0.00 0.00 0.00 98 1016.3
20260510105028 51 164 0.0 0.0 0.00 0.00 0.00 98 1016.2
20260510104525 51 164 0.0 0.0 0.00 0.00 0.00 98 1016.3
20260510104021 52 165 0.0 0.0 0.00 0.00 0.00 98 1016.1
20260510103518 52 203 0.0 0.0 0.00 0.00 0.00 98 1016.0
20260510103014 52 187 0.0 0.0 0.00 0.00 0.00 98 1016.0
20260510102510 52 164 0.0 0.0 0.00 0.00 0.00 98 1016.0
20260510102007 52 164 0.0 0.0 0.00 0.00 0.00 98 1015.9
20260510101504 52 164 0.0 0.0 0.00 0.00 0.00 98 1016.3
20260510101003 52 164 0.0 0.0 0.00 0.00 0.00 98 1016.3
20260510100458 52 164 0.0 0.0 0.00 0.00 0.00 97 1016.0
20260510095955 52 164 0.0 0.0 0.00 0.00 0.00 97 1016.1
20260510095450 52 164 0.0 0.0 0.00 0.00 0.00 97 1016.2
20260510094944 52 163 0.0 0.0 0.00 0.00 0.00 97 1016.3
20260510094439 52 163 0.0 0.0 0.00 0.00 0.00 97 1016.5
20260510093935 52 163 0.0 0.0 0.00 0.00 0.00 97 1016.3
20260510093430 52 163 0.0 0.0 0.00 0.00 0.00 97 1016.4
20260510092927 52 164 0.0 0.0 0.00 0.00 0.00 97 1016.0
20260510092425 53 163 0.0 0.0 0.00 0.00 0.00 97 1016.3
20260510091924 53 163 0.0 0.0 0.00 0.00 0.00 97 1016.3
20260510091422 53 164 0.0 0.0 0.00 0.00 0.00 97 1016.2
20260510090918 53 166 0.0 0.0 0.00 0.00 0.00 97 1016.4
20260510090415 53 167 0.0 0.0 0.00 0.00 0.00 97 1016.3
20260510085911 54 164 0.0 0.0 0.00 0.00 0.00 97 1016.2
20260510085406 53 164 0.0 0.0 0.00 0.00 0.00 97 1016.2
20260510084901 53 164 0.0 0.0 0.00 0.00 0.00 97 1016.2
20260510084359 53 164 0.0 0.0 0.00 0.00 0.00 97 1016.3
20260510083856 53 164 0.0 0.0 0.00 0.00 0.00 97 1016.0
20260510083352 53 163 0.0 0.0 0.00 0.00 0.00 97 1016.3
20260510082848 53 163 0.0 0.0 0.00 0.00 0.00 96 1016.4
20260510082345 54 173 0.0 0.0 0.00 0.00 0.00 97 1016.3
20260510081844 54 172 0.0 0.0 0.00 0.00 0.00 97 1016.4
20260510081340 54 173 0.0 0.0 0.00 0.00 0.00 96 1016.5
20260510080837 54 173 0.0 0.0 0.00 0.00 0.00 96 1016.6
20260510080331 54 173 0.0 0.0 0.00 0.00 0.00 96 1016.5
20260510075828 54 173 0.0 0.0 0.00 0.00 0.00 96 1016.6
20260510075326 54 173 0.0 0.0 0.00 0.00 0.00 96 1016.7
20260510074822 54 173 0.0 0.0 0.00 0.00 0.00 96 1016.6
20260510074320 54 173 0.0 0.0 0.00 0.00 0.00 95 1016.7
20260510073815 54 175 0.0 0.0 0.00 0.00 0.00 95 1016.5
20260510073311 54 175 0.0 0.0 0.00 0.00 0.00 95 1016.7
20260510072807 55 175 0.0 0.0 0.00 0.00 0.00 95 1016.7
20260510072259 54 175 0.0 0.0 0.00 0.00 0.00 95 1016.7
20260510071755 55 175 0.0 0.0 0.00 0.00 0.00 95 1016.7
20260510071251 55 177 0.0 0.0 0.00 0.00 0.00 95 1016.8
20260510070750 55 177 0.0 0.0 0.00 0.00 0.00 95 1016.8
20260510070246 55 178 0.0 0.0 0.00 0.00 0.00 95 1016.9
20260510065741 55 180 0.0 0.0 0.00 0.00 0.00 95 1016.7
20260510065238 55 180 0.0 0.0 0.00 0.00 0.00 94 1016.7
20260510064734 55 180 0.0 0.0 0.00 0.00 0.00 94 1016.8
20260510064232 55 180 0.0 0.0 0.00 0.00 0.00 94 1016.7
20260510063728 55 181 0.0 0.0 0.00 0.00 0.00 94 1016.6
20260510063225 55 181 0.0 0.0 0.00 0.00 0.00 94 1016.8
20260510062722 56 182 0.0 0.0 0.00 0.00 0.00 94 1016.9
20260510062218 55 183 0.0 0.0 0.00 0.00 0.00 94 1016.7
20260510061713 55 183 0.0 0.0 0.00 0.00 0.00 94 1016.7
20260510061211 55 183 0.0 0.0 0.00 0.00 0.00 94 1016.6
20260510060707 55 183 0.0 0.0 0.00 0.00 0.00 93 1016.6
20260510060203 56 186 0.0 0.0 0.00 0.00 0.00 93 1016.6
20260510055700 56 184 0.0 0.0 0.00 0.00 0.00 93 1016.9
20260510055158 56 184 0.0 0.0 0.00 0.00 0.00 93 1016.7
20260510054653 56 185 0.0 0.0 0.00 0.00 0.00 93 1016.7
20260510054149 56 186 0.0 0.0 0.00 0.00 0.00 92 1016.7
20260510053648 57 186 0.0 0.0 0.00 0.00 0.00 92 1016.9
20260510053145 57 186 0.0 0.0 0.00 0.00 0.00 92 1016.7
20260510052641 57 187 0.0 0.0 0.00 0.00 0.00 92 1016.9
20260510052137 57 188 0.0 0.0 0.00 0.00 0.00 92 1016.6
20260510051633 57 190 0.0 0.0 0.00 0.00 0.00 92 1016.7
20260510051130 57 174 0.0 0.0 0.00 0.00 0.00 92 1016.8
20260510050627 57 174 0.0 0.0 0.00 0.00 0.00 92 1017.0
20260510050124 57 175 0.0 0.0 0.00 0.00 0.00 91 1016.7
20260510045621 57 172 0.0 0.0 0.00 0.00 0.00 91 1016.7
20260510045117 58 172 0.0 0.0 0.00 0.00 0.00 90 1016.6
20260510044614 57 172 0.0 0.0 0.00 0.00 0.00 91 1016.9
20260510044111 58 172 0.0 0.0 0.00 0.00 0.00 90 1016.6
20260510043607 58 173 0.0 0.0 0.00 0.00 0.00 90 1016.7
20260510043103 58 173 0.0 0.0 0.00 0.00 0.00 90 1016.8
20260510042601 58 173 0.0 0.0 0.00 0.00 0.00 89 1016.7
20260510042057 59 173 0.0 0.0 0.00 0.00 0.00 89 1016.6
20260510041554 59 174 0.0 0.0 0.00 0.00 0.00 89 1016.5
20260510041052 59 181 0.0 0.0 0.00 0.00 0.00 89 1016.4
20260510040548 59 166 0.0 0.0 0.00 0.00 0.00 89 1016.3
20260510040044 59 169 0.0 0.0 0.00 0.00 0.00 89 1016.4
20260510035541 59 161 0.0 0.0 0.00 0.00 0.00 88 1016.5
20260510035040 59 165 0.0 0.0 0.00 0.00 0.00 88 1016.4
20260510034539 59 171 0.0 0.0 0.00 0.00 0.00 88 1016.2
20260510034035 59 169 0.0 0.0 0.00 0.00 0.00 88 1016.3
20260510033531 59 166 0.0 0.0 0.00 0.00 0.00 88 1016.2
20260510033030 59 175 0.0 0.0 0.00 0.00 0.00 88 1016.2
20260510032526 59 172 0.0 0.0 0.00 0.00 0.00 88 1016.1
20260510032021 59 179 0.0 0.0 0.00 0.00 0.00 88 1016.0
20260510031516 59 173 0.0 0.0 0.00 0.00 0.00 88 1016.0
20260510031012 59 181 0.0 0.0 0.00 0.00 0.00 87 1016.1
20260510030508 59 179 0.0 0.0 0.00 0.00 0.00 87 1016.1
20260510030005 59 183 0.0 0.0 0.00 0.00 0.00 86 1016.1
20260510025502 60 174 0.0 0.0 0.00 0.00 0.00 86 1015.8
20260510024959 60 182 0.0 0.0 0.00 0.00 0.00 86 1015.7
20260510024450 60 179 0.0 0.0 0.00 0.00 0.00 85 1015.8
20260510023946 60 325 0.0 1.0 0.00 0.00 0.00 84 1015.9
20260510023443 61 165 0.0 0.0 0.00 0.00 0.00 83 1015.9
20260510022940 62 166 0.0 0.0 0.00 0.00 0.00 83 1015.8
20260510022438 62 163 0.0 0.0 0.00 0.00 0.00 82 1015.7
20260510021938 62 132 0.0 1.0 0.00 0.00 0.00 82 1015.8
20260510021436 62 91 0.0 0.0 0.00 0.00 0.00 81 1015.7
20260510020932 63 94 1.0 1.0 0.00 0.00 0.00 81 1015.7
20260510020427 63 174 0.0 1.0 0.00 0.00 0.00 81 1015.5
20260510015923 63 171 0.0 2.0 0.00 0.00 0.00 80 1015.7
20260510015419 64 162 0.0 1.0 0.00 0.00 0.00 80 1015.6
20260510014914 64 160 0.0 2.0 0.00 0.00 0.00 79 1015.3
20260510014412 65 232 2.0 3.0 0.00 0.00 0.00 79 1015.7
20260510013908 65 67 0.0 3.0 0.00 0.00 0.00 76 1015.7
20260510013403 65 230 0.0 2.0 0.00 0.00 0.00 76 1015.2
20260510012858 66 234 2.0 3.0 0.00 0.00 0.00 76 1015.2
20260510012354 66 254 3.0 3.0 0.00 0.00 0.00 75 1015.6
20260510011849 67 252 2.0 4.0 0.00 0.00 0.00 74 1015.5
20260510011344 67 262 2.0 3.0 0.00 0.00 0.00 74 1015.5
20260510010840 68 321 0.0 2.0 0.00 0.00 0.00 74 1015.5
20260510010338 68 189 1.0 2.0 0.00 0.00 0.00 72 1015.5
20260510005834 68 116 1.0 4.0 0.00 0.00 0.00 71 1015.3
20260510005331 69 162 0.0 3.0 0.00 0.00 0.00 70 1015.5
20260510004829 69 54 0.0 3.0 0.00 0.00 0.00 71 1015.5
20260510004326 70 201 1.0 2.0 0.00 0.00 0.00 69 1015.6
20260510003823 70 89 2.0 2.0 0.00 0.00 0.00 69 1015.5
20260510003321 71 326 2.0 2.0 0.00 0.00 0.00 67 1015.6
20260510002819 71 17 0.0 3.0 0.00 0.00 0.00 68 1015.6
20260510002317 71 176 0.0 3.0 0.00 0.00 0.00 67 1015.5
20260510001813 71 318 2.0 3.0 0.00 0.00 0.00 67 1015.6
20260510001311 71 269 3.0 6.0 0.00 0.00 0.00 67 1015.5
20260510000806 71 79 1.0 4.0 0.00 0.00 0.00 67 1015.7
20260510000305 73 187 0.0 3.0 0.00 0.00 0.00 65 1015.3
20260509235802 72 179 0.0 1.0 0.00 0.00 0.00 64 1015.7
20260509235258 73 33 1.0 3.0 0.00 0.00 0.00 64 1015.5
20260509234754 74 84 0.0 3.0 0.00 0.00 0.00 63 1015.3
20260509234251 73 96 1.0 2.0 0.00 0.00 0.00 63 1015.6
20260509233749 74 140 1.0 6.0 0.00 0.00 0.00 63 1015.3
20260509233246 74 333 1.0 2.0 0.00 0.00 0.00 62 1015.5
20260509232742 74 270 2.0 3.0 0.00 0.00 0.00 62 1015.5
20260509232240 74 12 1.0 2.0 0.00 0.00 0.00 63 1015.7
20260509231736 74 249 2.0 6.0 0.00 0.00 0.00 63 1015.8
20260509231233 75 329 2.0 4.0 0.00 0.00 0.00 61 1015.7
20260509230730 75 265 2.0 2.0 0.00 0.00 0.00 60 1015.6
20260509230227 75 185 1.0 3.0 0.00 0.00 0.00 61 1015.8
20260509225722 75 218 1.0 2.0 0.00 0.00 0.00 61 1015.9
20260509225218 75 211 0.0 4.0 0.00 0.00 0.00 61 1015.6
20260509224714 75 239 2.0 4.0 0.00 0.00 0.00 62 1015.8
20260509224211 74 236 0.0 2.0 0.00 0.00 0.00 62 1015.9
20260509223708 74 61 0.0 2.0 0.00 0.00 0.00 64 1015.9
20260509223205 75 253 0.0 3.0 0.00 0.00 0.00 62 1016.0
20260509222702 74 72 1.0 6.0 0.00 0.00 0.00 62 1016.1
20260509222158 75 119 0.0 3.0 0.00 0.00 0.00 63 1015.8
20260509221654 74 187 1.0 3.0 0.00 0.00 0.00 63 1016.0
20260509221149 75 274 1.0 6.0 0.00 0.00 0.00 62 1016.2
20260509220646 75 188 0.0 8.0 0.00 0.00 0.00 62 1016.2
20260509220142 76 280 5.0 7.0 0.00 0.00 0.00 61 1016.3
20260509215638 75 183 2.0 7.0 0.00 0.00 0.00 62 1016.3
20260509215135 75 217 2.0 3.0 0.00 0.00 0.00 62 1016.3
20260509214632 75 157 1.0 3.0 0.00 0.00 0.00 62 1016.2
20260509214129 76 266 1.0 3.0 0.00 0.00 0.00 61 1016.2
20260509213626 76 227 2.0 4.0 0.00 0.00 0.00 62 1016.4
20260509213121 75 251 4.0 6.0 0.00 0.00 0.00 63 1016.5
20260509212619 75 250 1.0 4.0 0.00 0.00 0.00 64 1016.7
20260509212116 75 183 1.0 7.0 0.00 0.00 0.00 63 1016.3
20260509211612 75 229 2.0 2.0 0.00 0.00 0.00 63 1016.6
20260509211109 75 237 4.0 7.0 0.00 0.00 0.00 64 1016.5
20260509210605 75 35 2.0 4.0 0.00 0.00 0.00 64 1016.6
20260509205556 74 169 2.0 4.0 0.00 0.00 0.00 65 1016.9
20260509205051 75 284 4.0 7.0 0.00 0.00 0.00 65 1016.9
20260509204548 74 25 1.0 4.0 0.00 0.00 0.00 65 1016.8
20260509204045 74 29 2.0 3.0 0.00 0.00 0.00 65 1016.6
20260509203540 74 50 2.0 8.0 0.00 0.00 0.00 66 1016.7
20260509203038 74 170 2.0 3.0 0.00 0.00 0.00 65 1016.9
20260509202533 74 326 2.0 2.0 0.00 0.00 0.00 66 1017.0
20260509202029 74 243 5.0 8.0 0.00 0.00 0.00 65 1017.0
20260509201524 74 146 2.0 7.0 0.00 0.00 0.00 65 1016.9
20260509201021 74 184 2.0 4.0 0.00 0.00 0.00 65 1017.1
20260509200515 73 208 1.0 4.0 0.00 0.00 0.00 66 1017.0
20260509200012 73 27 0.0 3.0 0.00 0.00 0.00 67 1016.7
20260509195508 74 235 2.0 3.0 0.00 0.00 0.00 66 1016.9
20260509195002 73 49 0.0 3.0 0.00 0.00 0.00 68 1017.2
20260509194457 73 30 2.0 6.0 0.00 0.00 0.00 67 1017.2
20260509193954 73 169 2.0 6.0 0.00 0.00 0.00 68 1017.2
20260509193449 73 209 3.0 4.0 0.00 0.00 0.00 67 1017.2
20260509192945 73 203 3.0 3.0 0.00 0.00 0.00 67 1017.0
20260509192442 74 189 2.0 4.0 0.00 0.00 0.00 66 1017.2
20260509191937 73 204 2.0 8.0 0.00 0.00 0.00 68 1017.2
20260509191432 72 213 2.0 6.0 0.00 0.00 0.00 67 1017.6
20260509190929 73 236 1.0 7.0 0.00 0.00 0.00 67 1017.2
20260509190426 72 344 1.0 4.0 0.00 0.00 0.00 69 1017.3
20260509185924 71 263 3.0 7.0 0.00 0.00 0.00 69 1017.3
20260509185421 72 305 4.0 6.0 0.00 0.00 0.00 68 1017.2
20260509184917 71 193 3.0 4.0 0.00 0.00 0.00 69 1017.4
20260509184415 72 225 3.0 6.0 0.00 0.00 0.00 68 1017.3
20260509183911 70 42 0.0 2.0 0.00 0.00 0.00 71 1017.5
20260509183406 70 302 2.0 3.0 0.00 0.00 0.00 71 1017.5
20260509182902 70 284 3.0 3.0 0.00 0.00 0.00 72 1017.6
20260509182359 70 143 1.0 4.0 0.00 0.00 0.00 72 1017.6
20260509181857 69 251 2.0 4.0 0.00 0.00 0.00 74 1017.6
20260509181354 69 162 1.0 2.0 0.00 0.00 0.00 74 1017.8
20260509180851 69 355 1.0 3.0 0.00 0.00 0.00 75 1017.6
20260509180346 68 92 0.0 4.0 0.00 0.00 0.00 77 1017.8
20260509175844 67 220 3.0 3.0 0.00 0.00 0.00 77 1017.8
20260509175340 67 262 2.0 4.0 0.00 0.00 0.00 79 1017.8
20260509174836 65 13 1.0 3.0 0.00 0.00 0.00 81 1017.6
20260509174332 65 158 0.0 4.0 0.00 0.00 0.00 81 1017.7
20260509173828 66 358 1.0 2.0 0.00 0.00 0.00 79 1018.0
20260509173323 65 210 1.0 6.0 0.00 0.00 0.00 81 1017.8
20260509172820 65 296 3.0 3.0 0.00 0.00 0.00 81 1017.8
20260509172317 65 238 2.0 4.0 0.00 0.00 0.00 82 1018.1
20260509171813 65 257 2.0 4.0 0.00 0.00 0.00 81 1017.6
20260509171308 65 191 1.0 3.0 0.00 0.00 0.00 81 1017.8
20260509170805 64 172 0.0 3.0 0.00 0.00 0.00 84 1017.5
20260509170301 64 257 1.0 2.0 0.00 0.00 0.00 84 1017.6
20260509165800 64 281 1.0 2.0 0.00 0.00 0.00 84 1017.8
20260509165255 63 347 2.0 2.0 0.00 0.00 0.00 85 1017.7
20260509164751 62 78 1.0 2.0 0.00 0.00 0.00 86 1017.7
20260509164248 62 173 2.0 3.0 0.00 0.00 0.00 86 1017.8
20260509163745 61 183 3.0 4.0 0.00 0.00 0.00 88 1017.4
20260509163241 61 250 1.0 3.0 0.00 0.00 0.00 88 1017.8
20260509162739 62 327 3.0 4.0 0.00 0.00 0.00 88 1017.8
20260509162234 61 157 0.0 2.0 0.00 0.00 0.00 88 1017.8
20260509161730 61 141 0.0 2.0 0.00 0.00 0.00 89 1018.0
20260509161226 60 239 1.0 2.0 0.00 0.00 0.00 90 1017.7
20260509160721 60 336 0.0 0.0 0.00 0.00 0.00 92 1017.6
20260509160218 59 187 1.0 2.0 0.00 0.00 0.00 93 1017.8
20260509155713 58 176 1.0 3.0 0.00 0.00 0.00 93 1017.8
20260509155210 58 212 2.0 3.0 0.00 0.00 0.00 93 1017.8
20260509154706 58 228 1.0 3.0 0.00 0.00 0.00 93 1017.9
20260509154203 58 134 0.0 2.0 0.00 0.00 0.00 94 1017.9
20260509153700 58 184 0.0 0.0 0.00 0.00 0.00 93 1017.8
20260509153156 58 152 0.0 1.0 0.00 0.00 0.00 94 1017.9
20260509152652 57 161 0.0 0.0 0.00 0.00 0.00 95 1017.7
20260509152149 57 242 2.0 2.0 0.00 0.00 0.00 95 1017.9
20260509151646 57 187 0.0 1.0 0.00 0.00 0.00 96 1017.7
20260509151143 57 309 0.0 1.0 0.00 0.00 0.00 96 1017.5
20260509150641 57 156 0.0 0.0 0.00 0.00 0.00 97 1017.8
20260509150139 56 126 0.0 0.0 0.00 0.00 0.00 97 1017.4
20260509145635 56 124 0.0 0.0 0.00 0.00 0.00 97 1017.8
20260509145130 56 136 0.0 0.0 0.00 0.00 0.00 98 1017.7
20260509144627 55 135 0.0 0.0 0.00 0.00 0.00 98 1017.8
20260509144124 55 142 0.0 0.0 0.00 0.00 0.00 98 1017.6
20260509143621 55 145 0.0 0.0 0.00 0.00 0.00 98 1017.7
20260509143119 55 147 0.0 0.0 0.00 0.00 0.00 98 1017.8
20260509142614 55 170 0.0 0.0 0.00 0.00 0.00 98 1017.7
20260509142111 54 133 0.0 0.0 0.00 0.00 0.00 98 1017.8
20260509141607 54 142 0.0 0.0 0.00 0.00 0.00 98 1017.8
20260509141103 54 78 0.0 0.0 0.00 0.00 0.00 98 1017.8
20260509140600 54 132 0.0 0.0 0.00 0.00 0.00 98 1017.6
20260509140058 54 126 0.0 0.0 0.00 0.00 0.00 98 1017.7
20260509135555 54 149 0.0 0.0 0.00 0.00 0.00 98 1017.7
20260509135053 54 323 0.0 0.0 0.00 0.00 0.00 98 1017.5
20260509134549 54 165 0.0 0.0 0.00 0.00 0.00 98 1017.6
20260509134047 54 345 0.0 0.0 0.00 0.00 0.00 98 1017.4
20260509133544 54 133 0.0 1.0 0.00 0.00 0.00 98 1017.3
20260509133042 54 149 0.0 0.0 0.00 0.00 0.00 98 1017.3
20260509132540 54 87 0.0 0.0 0.00 0.00 0.00 98 1017.1
20260509132037 54 163 0.0 0.0 0.00 0.00 0.00 98 1017.4
20260509131528 54 161 0.0 0.0 0.00 0.00 0.00 98 1017.4
20260509131025 53 156 0.0 0.0 0.00 0.00 0.00 98 1017.3
20260509130520 53 162 0.0 0.0 0.00 0.00 0.00 98 1017.4
20260509130018 53 186 0.0 0.0 0.00 0.00 0.00 97 1017.2
20260509125514 53 162 0.0 0.0 0.00 0.00 0.00 98 1017.2
20260509125010 53 165 0.0 0.0 0.00 0.00 0.00 98 1017.1
20260509124507 53 168 0.0 0.0 0.00 0.00 0.00 98 1017.1
20260509124004 53 158 0.0 0.0 0.00 0.00 0.00 98 1017.0
20260509123502 53 161 0.0 0.0 0.00 0.00 0.00 98 1016.9
20260509122957 53 146 0.0 0.0 0.00 0.00 0.00 98 1016.9
20260509122455 53 166 0.0 0.0 0.00 0.00 0.00 98 1017.1
20260509121951 53 155 0.0 0.0 0.00 0.00 0.00 98 1017.0
20260509121448 52 164 0.0 0.0 0.00 0.00 0.00 98 1016.9
20260509120946 53 171 0.0 0.0 0.00 0.00 0.00 98 1016.9
20260509120444 53 34 0.0 0.0 0.00 0.00 0.00 98 1016.9
20260509115942 53 145 0.0 0.0 0.00 0.00 0.00 98 1016.9
20260509115439 52 171 0.0 0.0 0.00 0.00 0.00 98 1016.8
20260509114936 52 145 0.0 0.0 0.00 0.00 0.00 98 1017.1
20260509114435 52 161 0.0 0.0 0.00 0.00 0.00 98 1017.0
20260509113934 52 160 0.0 0.0 0.00 0.00 0.00 98 1016.9
20260509113431 52 157 0.0 0.0 0.00 0.00 0.00 98 1017.1